Weather in Ramadi

Iraq     33°25′20″N   43°18′16″E
temp.,
°C
wind,
m/s
gust,
m/s
humid.,
%
clouds,
%
prec.,
mm/h
press.,
hPa
HPBL,
m
23 january, sat
sat2300:00+8nw45500 0.0 102771
03:00+7nw454916 0.0 102672
06:00+6nw454629 0.0 102766
09:00+8nw464294 0.0 1027273
12:00+12nnw552866 0.0 1027665
15:00+13n442840 0.0 1024791
18:00+11n343367 0.0 102590
21:00+9nnw333457 0.0 102523
24 january, sun
sun2400:00+9nw34370 0.0 102523
03:00+8nw34370 0.0 102525
06:00+7nw34380 0.0 102528
09:00+9nw34360 0.0 1026140
12:00+13nnw33250 0.0 1025557
15:00+15n33190 0.0 1024680
18:00+11nne23320 0.0 102329
21:00+10n22300 0.0 102322
25 january, mon
mon2500:00+9nw22320 0.0 102422
03:00+9nw343092 0.0 102324
06:00+8nnw23340 0.0 102322
09:00+12nw223227 0.0 102489
12:00+15nw22220 0.0 1024497
15:00+16n21190 0.0 1021689
18:00+13nne33290 0.0 102234
21:00+12n122617 0.0 102323
26 january, tue
tue2600:00+11wnw22270 0.0 102322
03:00+10nnw342952 0.0 102325
06:00+9nnw34350 0.0 102324
09:00+13nnw223429 0.0 102461
12:00+16nnw2225100 0.0 1023450
15:00+17nnw332022 0.0 1021636
18:00+14nne233033 0.0 102125
21:00+13n2232100 0.0 102123
27 january, wed
wed2700:00+11nne013077 0.0 102123
03:00+10ene113173 0.0 102023
06:00+10n1247100 0.0 101922
09:00+14ese342698 0.0 1019115
12:00+19se681895 0.0 1016666
15:00+19se4519100 0.0 1016795
18:00+16sse122693 0.0 101523
21:00+18se5112591 0.0 1009221